This is the latest recevied weather packets stored in our database for station/object NC4J. If no packets are shown the sender has not sent any weather packets the latest 10 day(s).
| Time | Temp. | Humidity | Pressure | Rain* | Wind** | Luminosity | Snow |
|---|---|---|---|---|---|---|---|
| 1777683279 | 13.33° C | 74% | 1013.5 hPa | 0 mm | - | 0 W/m² | - |
| 1777682977 | 13.33° C | 73% | 1013.5 hPa | 0 mm | - | 0 W/m² | - |
| 1777682672 | 13.33° C | 72% | 1013.4 hPa | 0 mm | - | 0 W/m² | - |
| 1777682370 | 13.33° C | 71% | 1013.3 hPa | 0 mm | - | 0 W/m² | - |
| 1777682067 | 13.89° C | 74% | 1013.4 hPa | 0 mm | - | 0 W/m² | - |
| 1777681763 | 13.89° C | 70% | 1013.3 hPa | 0 mm | - | 0 W/m² | - |
| 1777681461 | 13.89° C | 70% | 1013.3 hPa | 0 mm | - | 0 W/m² | - |
| 1777681158 | 13.89° C | 70% | 1013.3 hPa | 0 mm | - | 0 W/m² | - |
| 1777680855 | 14.44° C | 69% | 1013.3 hPa | 0 mm | - | 1 W/m² | - |
| 1777680553 | 14.44° C | 68% | 1013 hPa | 0 mm | - | 1 W/m² | - |
| 1777680251 | 14.44° C | 67% | 1013.1 hPa | 0 mm | - | 2 W/m² | - |
| 1777679947 | 15° C | 66% | 1012.8 hPa | 0 mm | - | 3 W/m² | - |
| 1777679643 | 15° C | 65% | 1012.8 hPa | 0 mm | - | 4 W/m² | - |
| 1777679338 | 15° C | 64% | 1012.5 hPa | 0 mm | - | 6 W/m² | - |
| 1777679035 | 15° C | 62% | 1012.4 hPa | 0 mm | - | 9 W/m² | - |
| 1777678733 | 15.56° C | 60% | 1012.4 hPa | 0 mm | - | 9 W/m² | - |
| 1777678431 | 15.56° C | 60% | 1012.3 hPa | 0 mm | - | 9 W/m² | - |
| 1777678126 | 16.11° C | 57% | 1012.4 hPa | 0 mm | - | 13 W/m² | - |
| 1777677824 | 16.67° C | 54% | 1012.1 hPa | 0 mm | - | 10 W/m² | - |
| 1777677521 | 17.22° C | 51% | 1012 hPa | 0 mm | - | 12 W/m² | - |
| 1777677219 | 17.22° C | 49% | 1011.9 hPa | 0 mm | - | 21 W/m² | - |
| 1777676917 | 17.22° C | 52% | 1011.8 hPa | 0 mm | - | 40 W/m² | - |
| 1777676616 | 17.22° C | 49% | 1012 hPa | 0 mm | - | 56 W/m² | - |
| 1777676313 | 17.22° C | 51% | 1012 hPa | 0 mm | - | 47 W/m² | - |
| 1777676010 | 17.78° C | 49% | 1012 hPa | 0 mm | - | 45 W/m² | - |
* Rain latest hour (hover to see other rain measurements)
** Current wind speed in m/s (hover to see current wind gust speed)